カタログに戻る

COSMOS 1541

Lost軍事HEO
NORAD 14790·PAYLOAD·🇷🇺 Russia

打ち上げ Mar 6, 1984 から Plesetsk Cosmodrome

Loading…

次のパス (今後24時間)

TLE

古いSource: Space-Track

元期: Jul 30, 2026, 21:28 UTC

1 14790U 84024A   26211.89457546  .00000168  00000-0  00000+0 0  9993
2 14790  71.6971 146.7342 5090934 339.2648 226.5068  2.00607657282819

AllMySatでCOSMOS 1541をリアルタイム追跡

Download on the App Store